Theta_e
322 322 321 321 321 321 321 321 322 322 323 324 324 325 325 325 323 317 309 318 323 341 340 325 329 328 327 323 326 323 308 303 305 308 309 313 314 319 322 319 320 325 327 328 331
321 321 321 320 320 320 320 320 321 321 322 323 323 324 324 324 315 311 324 341 343 345 322 318 319 326 319 321 319 314 305 305 313 314 311 314 317 319 319 317 322 327 329 330 329
320 320 320 320 320 319 319 320 320 321 322 322 322 324 324 321 313 315 347 344 344 343 323 321 322 323 319 317 317 311 305 309 314 318 315 315 317 320 317 314 324 324 324 326 325
319 319 319 319 319 319 319 319 320 321 321 321 322 324 324 317 304 316 346 346 347 333 324 320 320 317 314 313 317 310 315 316 316 318 315 317 323 322 321 322 326 328 326 324 323
318 319 318 318 318 318 318 318 318 319 320 320 322 325 315 308 311 325 349 344 333 321 316 314 311 315 311 313 315 313 315 318 319 318 319 325 323 323 324 327 327 326 325 323 322
317 318 317 317 317 317 317 317 317 317 318 320 323 324 315 306 318 330 326 325 324 319 319 316 315 319 314 315 314 317 315 315 318 319 320 320 320 325 325 330 329 326 323 323 323
317 317 316 316 316 317 316 316 316 317 319 322 325 321 314 311 323 322 325 323 322 322 319 318 315 313 313 315 320 318 313 316 316 320 318 320 315 316 328 330 326 326 323 323 323
318 317 316 316 316 316 316 316 316 318 321 324 326 316 307 318 319 320 319 323 325 323 321 321 316 314 313 316 315 313 312 306 315 318 320 317 311 324 329 328 326 328 328 324 322
317 316 316 316 316 316 315 315 317 322 324 326 316 310 306 323 320 323 324 322 322 322 319 323 315 310 310 307 303 306 302 307 312 319 320 319 313 324 326 324 323 324 327 327 327
317 316 315 315 315 315 314 314 319 320 322 323 320 310 313 314 320 322 322 323 321 319 316 314 309 306 304 302 298 303 302 304 306 317 317 314 315 321 324 322 321 323 326 326 325
317 315 314 314 315 313 310 309 305 304 306 305 309 311 314 319 321 318 322 322 319 314 307 310 305 302 306 306 308 310 307 306 310 318 315 313 314 318 322 326 324 324 320 319 322
317 315 315 314 313 313 307 307 304 307 302 310 310 311 316 316 312 317 320 314 315 307 310 306 302 308 311 311 310 310 307 307 312 316 312 313 312 317 317 320 320 324 321 319 321
315 314 314 313 312 308 305 308 308 310 300 308 311 311 312 313 313 314 315 313 310 306 306 303 307 312 309 307 308 305 304 306 307 313 314 311 309 310 317 321 324 325 324 324 322
314 313 313 311 304 304 306 311 313 310 298 304 307 311 312 312 311 318 317 314 309 306 306 306 311 310 307 305 307 299 310 312 311 305 301 310 297 308 313 318 321 320 322 322 321
314 313 312 311 301 302 307 310 311 311 293 309 308 313 312 310 311 315 320 314 309 308 307 305 306 306 305 305 308 305 312 311 310 305 303 308 301 307 313 313 316 320 322 323 320
313 312 311 307 302 307 309 309 308 300 296 304 307 305 304 306 309 312 314 316 315 309 308 308 311 310 307 310 309 310 309 306 305 301 296 302 303 303 308 312 317 318 319 322 323
313 311 308 309 301 305 307 307 299 296 310 301 301 303 303 303 306 309 310 305 302 298 298 305 306 310 313 306 308 306 301 294 294 294 295 304 301 304 311 318 318 318 319 322 322
311 308 307 310 306 309 307 305 296 306 307 308 304 301 300 304 305 307 307 303 307 304 300 298 297 306 313 309 303 305 302 295 290 292 294 305 300 306 315 321 323 322 321 322 320
307 303 305 310 311 309 305 298 300 307 311 308 305 298 297 302 305 304 304 304 306 307 300 299 301 309 315 314 311 306 301 304 299 298 295 299 307 312 315 317 320 322 322 321 319
301 303 307 313 314 308 301 298 305 314 312 309 303 306 297 298 300 301 302 308 308 311 309 305 298 307 314 313 311 308 309 298 297 291 290 298 301 299 310 313 318 319 320 321 318
304 303 311 315 312 303 293 299 306 312 312 308 308 306 307 302 301 299 302 308 312 311 309 305 300 302 310 307 304 304 301 303 301 299 293 293 298 309 312 315 311 314 318 317 316
300 296 311 312 300 298 295 303 307 310 315 312 310 311 311 311 302 301 303 307 314 312 307 309 302 298 304 311 312 308 305 303 296 296 299 298 298 315 316 318 317 315 318 319 315
294 301 312 310 295 295 300 307 311 311 311 311 312 314 313 307 301 308 312 317 316 312 308 309 301 300 302 304 307 305 308 306 303 300 297 295 299 315 316 316 316 314 317 317 315
297 298 305 306 303 299 298 302 307 312 312 313 311 313 310 310 311 311 313 316 318 316 320 315 306 303 298 301 304 304 308 307 302 296 299 301 304 311 312 313 316 316 316 315 316
299 299 304 300 303 304 304 304 305 306 312 310 308 313 312 305 308 310 314 314 318 318 313 313 304 305 307 310 310 307 307 307 304 305 302 306 306 308 310 312 315 318 316 317 317
294 301 304 302 303 304 302 304 307 310 311 308 308 314 314 309 310 307 314 309 307 310 307 310 302 306 303 310 310 306 309 309 309 309 310 310 308 313 314 316 318 319 320 318 319
305 304 303 301 302 299 301 305 309 309 309 312 315 313 313 316 318 314 315 315 313 309 306 308 306 302 299 308 307 300 308 309 310 316 313 307 310 314 314 315 314 315 317 318 320
Wind_Speed
16 17 19 19 18 18 18 18 18 16 14 15 14 12 11 11 10 1 5 11 7 10 3 3 3 5 5 3 6 2 3 5 9 6 5 4 5 4 4 6 2 2 6 8 10
18 17 18 20 19 18 18 18 18 17 15 14 13 11 10 10 2 6 11 10 9 13 3 2 6 4 3 4 2 3 6 6 8 6 7 5 7 9 7 5 4 8 10 11 13
22 20 19 20 21 18 19 17 18 17 16 14 13 11 9 7 4 7 2 6 6 7 4 3 3 2 2 2 1 1 1 6 5 3 5 10 3 3 15 6 15 18 12 9 9
21 24 21 21 21 21 18 19 18 18 16 14 12 11 8 1 2 4 7 3 8 4 4 5 3 5 5 6 2 2 7 5 6 7 6 3 3 8 5 2 12 15 14 6 8
21 21 23 21 22 21 19 20 19 18 15 13 11 8 1 2 9 4 8 6 5 2 3 0 3 3 6 1 4 5 4 2 4 7 7 10 16 13 20 14 7 10 8 9 9
22 21 22 24 22 22 22 20 20 16 14 12 10 6 1 2 3 9 9 5 5 4 4 7 8 11 4 2 3 8 4 1 5 5 9 10 5 16 17 15 5 7 9 10 10
21 22 23 24 24 23 23 22 22 17 13 10 8 2 0 12 2 7 9 8 5 7 5 6 5 6 5 2 4 2 5 13 8 1 6 8 7 7 4 3 11 13 10 10 11
22 23 23 24 24 25 25 25 23 18 11 8 7 2 7 6 4 6 5 7 9 9 6 12 6 7 8 0 5 4 6 3 9 3 7 3 4 5 4 5 12 16 13 8 8
24 24 26 28 26 26 28 28 23 10 4 8 2 2 9 11 4 8 8 7 5 6 5 4 3 3 1 6 5 4 3 3 4 2 7 11 2 13 12 12 8 10 12 10 7
25 26 27 28 27 27 31 23 7 1 3 4 2 1 5 5 5 3 6 5 5 6 8 9 7 4 6 5 6 7 3 2 4 4 20 16 14 10 8 6 9 11 11 2 9
25 26 27 30 29 24 16 7 9 7 4 5 4 4 9 8 6 5 5 3 2 4 5 4 7 7 13 7 7 5 0 7 2 10 8 9 4 4 4 6 4 14 4 8 13
24 26 28 30 32 26 1 4 4 7 8 6 11 6 10 4 6 8 3 3 1 6 5 7 3 7 12 13 6 6 9 4 3 2 6 4 5 4 4 2 3 11 7 10 11
24 25 27 33 35 4 4 5 5 4 2 8 6 5 7 6 4 4 3 1 6 4 1 2 9 9 8 11 5 1 7 7 7 4 5 7 3 3 2 7 5 6 7 10 11
22 24 23 33 5 7 8 9 12 1 5 7 5 7 4 5 5 5 3 6 1 6 2 4 6 7 13 6 1 1 4 9 11 4 4 1 2 7 5 8 5 6 7 7 5
23 23 20 8 6 5 8 9 11 6 4 4 4 4 8 8 3 2 4 4 9 2 4 7 7 11 11 6 2 8 4 11 5 6 7 4 7 8 7 6 5 14 10 9 3
25 23 20 1 3 11 10 13 4 6 1 2 6 6 5 3 4 3 2 6 2 1 3 5 4 4 6 10 6 5 8 8 6 4 5 2 8 6 5 1 6 12 14 10 7
27 28 15 4 6 3 7 5 6 4 6 4 6 6 7 5 4 2 2 2 2 4 5 8 6 6 1 8 8 7 7 4 6 6 2 3 5 5 4 5 13 14 13 10 7
28 29 6 7 6 5 5 6 4 4 4 2 3 4 8 6 6 3 3 1 3 4 1 2 11 5 7 4 5 5 8 7 3 2 2 6 2 2 8 9 14 19 12 6 7
26 4 5 7 6 4 6 4 6 4 8 6 5 4 3 5 6 6 7 6 7 8 7 4 7 2 5 1 2 3 5 2 7 4 5 3 1 5 7 9 12 11 8 9 8
5 5 6 6 8 6 6 4 5 4 8 4 3 2 3 6 7 8 7 6 8 9 6 5 2 4 4 5 4 5 2 4 4 4 2 4 4 4 8 12 10 13 12 15 6
3 5 6 5 6 7 2 7 7 10 9 7 1 3 6 5 10 7 8 8 6 5 9 6 4 7 2 1 3 4 2 7 4 5 7 4 6 8 9 10 7 11 9 6 7
3 3 4 4 5 1 2 5 6 13 17 7 2 2 3 2 4 7 7 7 6 7 3 1 5 1 5 4 5 3 3 6 6 2 2 4 6 6 10 7 6 9 8 9 9
3 5 6 6 1 2 7 6 5 5 7 4 4 2 4 5 5 3 2 1 4 4 6 3 3 4 12 8 6 3 2 2 4 4 3 6 6 2 4 9 8 9 15 9 7
3 4 6 5 1 3 4 7 6 8 8 4 5 3 5 8 8 3 7 8 7 8 5 7 4 7 6 8 4 3 9 5 6 5 2 2 2 5 4 8 10 11 10 8 3
1 5 2 4 3 3 3 4 8 5 4 8 4 2 2 4 3 5 6 7 7 10 4 5 3 3 4 6 3 2 9 13 14 2 8 4 2 5 5 6 7 5 8 6 3
1 3 6 5 5 5 2 3 3 2 1 9 4 5 6 4 4 6 3 3 3 4 4 5 1 3 6 4 3 2 6 5 4 5 7 8 1 3 2 1 8 7 6 6 5
3 4 3 6 6 3 2 7 8 6 6 4 6 4 6 1 5 2 5 3 5 1 2 4 2 3 3 3 1 4 2 4 5 7 6 4 3 0 4 6 5 6 6 5 5
Wind_Direction
358 347 341 342 343 340 338 336 335 336 330 324 329 330 330 323 302 164 250 217 198 138 144 241 195 256 129 235 179 158 77 235 188 175 202 212 135 216 155 121 52 172 130 157 153
353 349 341 338 338 338 336 334 331 332 329 326 326 327 329 335 298 249 250 174 212 125 212 346 352 31 322 170 268 148 141 240 194 165 168 217 167 164 121 115 66 83 101 131 136
346 347 343 337 333 339 331 332 326 327 326 324 322 321 323 333 337 257 239 200 135 135 289 168 170 88 210 311 195 222 118 270 11 251 124 181 237 181 142 162 158 149 155 145 137
348 340 341 335 333 331 332 326 323 321 321 319 315 312 320 239 268 272 179 261 88 148 317 350 40 11 344 332 299 344 36 31 327 359 3 90 19 61 28 205 160 150 154 149 148
344 337 334 334 330 328 328 320 320 314 314 309 307 317 291 29 253 185 151 122 101 146 216 200 353 94 271 42 9 40 324 260 287 348 96 66 45 73 41 12 126 130 153 158 168
338 334 331 330 328 325 321 317 312 308 305 297 295 302 45 267 223 157 154 133 212 182 209 161 201 207 257 7 136 222 209 243 75 91 59 83 41 75 5 334 1 155 181 185 186
335 333 334 327 324 323 321 315 307 302 293 280 270 260 77 233 185 169 169 196 208 197 234 230 226 167 195 175 273 318 28 340 90 273 117 108 30 60 45 307 41 348 213 197 197
337 334 328 325 326 325 320 313 306 297 280 249 227 141 245 252 153 165 183 288 251 235 213 264 254 257 153 125 3 40 44 51 349 338 40 21 337 212 22 59 60 350 337 308 217
335 331 331 330 327 326 322 312 301 284 211 167 159 156 268 310 203 220 166 232 286 297 294 274 67 275 155 147 21 330 230 120 323 29 121 109 345 324 347 16 29 15 325 311 319
333 333 331 326 325 327 322 303 280 29 163 195 259 21 294 254 251 246 222 242 259 297 353 20 35 339 15 94 229 263 281 174 172 71 104 114 179 169 86 328 322 303 258 184 336
332 330 330 327 323 330 340 3 17 353 67 217 222 267 285 294 316 251 190 193 317 30 324 350 9 324 302 245 189 208 73 132 96 127 72 134 111 304 98 241 293 279 204 305 306
330 330 330 326 320 326 240 7 311 240 312 241 238 251 261 197 301 280 96 137 248 284 357 9 300 275 339 356 174 107 119 119 92 64 79 211 161 253 97 36 291 277 326 300 287
329 332 331 326 318 350 294 253 312 35 35 292 215 188 230 139 228 257 84 336 219 287 335 170 268 318 6 353 37 43 145 188 144 134 71 156 69 64 17 184 235 235 255 277 264
328 330 334 327 30 328 294 296 345 47 57 275 200 250 220 165 273 229 212 182 238 235 273 273 295 342 337 332 295 336 195 110 130 121 114 143 337 1 309 325 26 298 303 294 318
328 326 331 324 288 317 256 329 322 59 59 158 185 209 166 152 209 275 267 140 213 278 84 262 314 323 323 263 10 239 45 128 116 94 106 333 69 290 322 347 282 300 303 334 271
323 322 337 215 246 242 312 305 54 41 348 223 158 171 125 211 264 288 59 40 93 46 331 240 242 228 233 289 247 191 83 43 56 75 57 216 126 280 255 258 310 275 293 299 228
320 316 322 259 240 315 330 27 44 103 321 195 185 144 171 196 257 198 283 14 112 18 340 332 283 287 303 347 309 94 58 10 13 20 191 329 85 214 219 184 222 254 278 302 245
320 316 241 219 241 359 15 49 61 258 290 2 140 103 173 170 238 224 126 194 258 120 114 258 334 27 318 97 261 90 136 147 183 177 184 355 143 210 216 218 244 250 254 276 301
318 328 281 258 199 115 65 63 219 278 323 11 44 87 257 219 167 184 193 210 225 171 168 177 264 351 51 5 50 344 44 145 101 60 76 272 348 327 279 252 263 269 294 273 255
330 338 271 264 139 68 69 239 258 272 320 29 80 139 258 242 160 160 195 223 241 191 143 250 321 314 316 56 0 107 164 36 17 105 141 308 291 222 255 264 258 263 256 265 234
16 351 261 137 71 51 165 242 292 293 6 332 301 298 257 222 199 183 212 255 212 263 155 167 117 294 19 304 200 330 53 53 108 133 144 167 255 226 235 223 249 233 231 268 230
357 329 267 33 48 73 221 226 314 302 312 265 265 248 278 260 234 190 210 231 197 161 110 16 131 56 264 314 229 148 181 136 117 240 200 147 260 233 245 254 239 269 275 285 223
351 269 310 94 161 302 295 293 265 299 299 331 295 32 287 348 39 45 170 283 71 85 146 184 13 28 342 352 5 12 234 178 114 82 189 119 257 235 289 288 286 278 282 305 246
31 339 315 36 102 113 312 283 309 313 289 239 262 17 10 42 11 31 13 17 40 28 29 82 107 141 183 231 212 353 30 73 135 91 239 15 21 339 284 270 296 286 260 262 355
83 265 264 306 321 318 236 278 297 313 328 342 309 42 0 32 46 28 40 2 41 352 36 88 110 130 221 40 43 23 93 77 62 270 112 263 353 293 264 248 234 59 80 107 315
76 32 342 292 304 297 224 249 264 307 270 314 16 307 80 128 173 200 141 112 233 336 51 359 349 48 354 65 15 104 63 90 124 176 113 130 176 271 343 86 39 40 46 17 349
315 344 105 277 322 351 9 310 321 348 294 237 266 95 72 329 149 105 345 119 169 63 66 54 65 67 277 8 35 340 15 17 330 34 124 153 190 51 38 65 44 32 43 20 347